Location: Im Fang
(46.6019°N, 7.2397°E)
Time: 16:37:28
(UTC+00:00)

GEOS 3 Rocket - Pass Details

Date: 08 December 2019
Orbit: 783 x 837 km, 115.0° (Epoch: 21 January)

Event Time Altitude Azimuth Distance (km) Brightness Sun altitude
Rises 04:30:07 0° 154° (SSE) 3,258 7.2 -25.1°
Reaches altitude 10° 04:32:26 10° 160° (SSE) 2,337 6.3 -24.7°
Enters shadow 04:37:14 52° 231° (SW) 978 3.7 -23.9°
